Starlink 32879

operational
NORAD ID: 62957 Int'l Des: 2025-029 Owner: SPXS Country: US Constellation: starlink
LEOCIRCULAR

关于 Starlink 32879

正在加载描述...

实时位置

正在加载3D地球...

即将过境

高度历史

Altitude vs Time

uPlot chart will show altitude changes over time

两行轨道根数

1 62957U 25029K 25352.95324692 .00018820 00000-0 64580-3 0 9999
2 62957 53.1590 247.6729 0001001 91.5386 268.5729 15.30206109 48957
Epoch: Dec 18, 2025 • Age: 10 hours

当前状态

高度 480.6 km
速度 7.63 km/s
星下点 -18.87°S, 145.33°W
发射日期 Feb 11, 2025
运行时间 0.8 years
类型 internet

技术详情

分类 Payload
质量 730.00 kg
干质量 700.00 kg
总质量 730.00 kg
长度 0.30 m
直径 4.10 m
跨度 29.00 m
形状 Box + pan
制造商 SPXS
平台类型 Starlink V2M
阶段状态 In Orbit
所有者/国家 SPXS/US

大型星座

Loading constellations...